NOAA NWS Hourly Roundups by Site

Regional Weather Roundup for Bismarck, ND

To Select Another Site Choose from List

Select Site:  

000
ASUS43 KBIS 052110
RWRBIS

NWR BROADCAST TEXT
NATIONAL WEATHER SERVICE BISMARCK ND
400 PM CDT SUN APR 05 2020

NOTE: "FAIR" INDICATES FEW OR NO CLOUDS BELOW 12,000 FEET WITH NO
SIGNIFICANT WEATHER AND/OR OBSTRUCTIONS TO VISIBILITY.


CITY           SKY/WX    TMP DP  RH WIND       PRES   REMARKS
WILLISTON      FAIR      44  23  43 E18G32    29.80F
MINOT          FAIR      39  34  82 E7        29.89F
MINOT AFB      NOT AVBL
BISMARCK       PTSUNNY   43  32  65 E18       29.84F
DICKINSON      FAIR      48  27  44 E22G31    29.74F
GARRISON         N/A     40  34  79 E20G25    29.86F
HETTINGER ARPT PTSUNNY   49  30  48 E14       29.74F
JAMESTOWN      CLOUDY    40  32  73 E15       29.90F
CARRINGTON     FAIR      41  34  75 E8G17     29.94F
HAZEN          FAIR      46  30  53 E16G23    29.84F
MANDAN         FAIR      41  36  81 E14G21    29.83F
OAKES          CLOUDY    39  36  87 E15       29.92F
RUGBY          FAIR      37  34  87 E14       29.92F
STANLEY        FAIR      36  34  93 E15G23    29.86F
TIOGA          FAIR      37  30  75 E20       29.85F
WATFORD CITY   FAIR      46  30  53 E17G26    29.79F
$$

CITY           SKY/WX    TMP DP  RH WIND       PRES   REMARKS
GRAND FORKS    PTSUNNY   36  28  73 SE8       30.01F
GRAND FORKS AF CLOUDY    37  30  77 SE6       30.01F
DEVILS LAKE    FAIR      39  32  76 E13       29.96F
FARGO          PTSUNNY   42  31  64 S8        29.99F
CANDO          FAIR      39  34  81 E9        29.98S
CAVALIER       FAIR      36  28  75 VRB3      30.03S
GRAFTON        FAIR      36  32  87 E8        30.04S
GWINNER        MOCLDY    41  37  87 SE12      29.95F
LANGDON        FAIR      41  34  75 E10       29.98F
ROLLA          FAIR      34  30  86 N9        29.95F
WALHALLA       FAIR      37  30  75 NE6       30.03R
$$

CITY           SKY/WX    TMP DP  RH WIND       PRES   REMARKS
ABERDEEN       PTSUNNY   51  36  56 SE16      29.89F
MOBRIDGE       FAIR      59  35  40 MISG      29.75F
BUFFALO          N/A     55  28  35 SE13G26   29.66F
RAPID CITY     FAIR      66  32  28 S12G18    29.65F
GLASGOW        PTSUNNY   48  28  46 E22       29.71F
SIDNEY         FAIR      53  26  35 E12G25    29.76F
WOLF POINT     CLOUDY    51  28  41 E18       29.74F
GLENDIVE       FAIR      53  26  35 SE18      29.72F
MILES CITY     PTSUNNY   57  25  29 SE12      29.66F
BAKER          FAIR      50  29  44 SE22G31   29.70F
$$

CITY           SKY/WX    TMP DP  RH WIND       PRES   REMARKS
BILLINGS       FAIR      53  26  35 VRB3      29.65F
GREAT FALLS    FAIR      51  25  36 NE9       29.61F
REGINA         CLOUDY    36  23  60 E13       29.88F
ESTEVAN        CLOUDY    36  27  69 E13G24    29.87F
$$



 

View Past Reports for Bismarck, ND.

Products Courtesy of NOAA-NWS
NWS Information Parsing Script by Ken True at Saratoga Weather - Script by SE Lincoln Weather.